Find KUIPER-00439

NORAD ID: 68941 Int'l Des: 2026-098Y Owner: KUIP Country: US Constellation: amazon-leo operational
LEOCIRCULAR

Live-Position

3D-Globus wird geladen...

Über KUIPER-00439

Beschreibung wird geladen...

Nächste Überflüge

Passes for default location (London). Set your location on the main map for personalized predictions.

Höhenverlauf

Loading altitude history...

Zweizeiliger Elementsatz

1 68941U 26098Y 26125.83336806 .00056831 00000-0 16787-2 0 9990
2 68941 51.8777 271.7921 0008252 0.5097 292.0493 15.34374785 1302
Epoch: 5. Mai 2026 • Age: 4 hours

Aktueller Status

Höhe 478.1 km
Geschwindigkeit 7.62 km/s
Subsatellitenpunkt -36.40°S, 104.05°W
Startdatum 30. Apr. 2026
Alter 6 days
Typ internet

Technische Details

Klassifizierung Payload
Masse 490.00 kg
Trockenmasse 490.00 kg
Gesamtmasse 490.00 kg
Länge 1.80 m
Durchmesser 0.70 m
Spannweite 5.00 m
Form Box + 2 pan
Hersteller KUIP
Bus-Typ Kuiper
Phasenstatus In Orbit
Besitzer/Staat KUIP/US

Most Searched